Time,TemperatureF,DewpointF,PressureIn,WindDirection,WindDirectionDegrees,WindSpeedMPH,WindSpeedGustMPH,Humidity,HourlyPrecipIn,Conditions,Clouds,dailyrainin,SoftwareType,DateUTC
2013-01-29 00:01:00,46.0,4.0,30.35,West,264,12.0,18.0,17,0.05,,,0.38,,2013-01-29 08:01:00,
2013-01-29 00:21:00,46.0,5.0,30.35,West,268,9.0,19.0,18,0.04,,,0.38,,2013-01-29 08:21:00,
2013-01-29 00:31:00,46.0,5.0,30.36,NW,304,11.0,20.0,18,0.05,,,0.40,,2013-01-29 08:31:00,
2013-01-29 00:52:00,46.0,6.0,30.36,West,272,10.0,18.0,19,0.03,,,0.40,,2013-01-29 08:52:00,
2013-01-29 01:01:00,46.0,2.0,30.36,WNW,287,11.0,17.0,16,0.02,,,0.40,,2013-01-29 09:01:00,
2013-01-29 01:21:00,46.0,2.0,30.36,West,277,11.0,18.0,16,0.03,,,0.41,,2013-01-29 09:21:00,
2013-01-29 01:31:00,46.0,1.0,30.36,NW,306,8.0,17.0,15,0.02,,,0.42,,2013-01-29 09:31:00,
2013-01-29 01:52:00,45.0,-1.0,30.36,WNW,284,10.0,24.0,14,0.02,,,0.42,,2013-01-29 09:52:00,
2013-01-29 02:01:00,46.0,1.0,30.37,West,265,11.0,21.0,15,0.02,,,0.42,,2013-01-29 10:01:00,
2013-01-29 02:21:00,45.0,-1.0,30.37,West,278,10.0,24.0,14,0.01,,,0.42,,2013-01-29 10:21:00,
2013-01-29 02:32:00,46.0,0.0,30.37,NW,304,12.0,21.0,14,0.00,,,0.39,,2013-01-29 10:32:00,
2013-01-29 02:52:00,46.0,0.0,30.37,WNW,294,10.0,19.0,14,0.00,,,0.39,,2013-01-29 10:52:00,
2013-01-29 03:01:00,46.0,1.0,30.37,West,269,13.0,18.0,15,0.01,,,0.40,,2013-01-29 11:01:00,
2013-01-29 03:21:00,46.0,4.0,30.37,West,269,12.0,17.0,17,0.01,,,0.40,,2013-01-29 11:21:00,
2013-01-29 03:31:00,46.0,2.0,30.37,West,269,10.0,20.0,16,0.01,,,0.39,,2013-01-29 11:31:00,
2013-01-29 03:52:00,46.0,2.0,30.37,WSW,254,13.0,19.0,16,0.01,,,0.39,,2013-01-29 11:52:00,
2013-01-29 04:02:00,46.0,2.0,30.38,West,262,12.0,19.0,16,0.00,,,0.39,,2013-01-29 12:02:00,
2013-01-29 04:21:00,46.0,2.0,30.38,WNW,296,10.0,22.0,16,0.00,,,0.39,,2013-01-29 12:21:00,
2013-01-29 04:32:00,46.0,4.0,30.38,West,281,13.0,21.0,17,0.01,,,0.40,,2013-01-29 12:32:00,
2013-01-29 04:52:00,46.0,2.0,30.38,West,277,15.0,24.0,16,0.01,,,0.40,,2013-01-29 12:52:00,
2013-01-29 05:01:00,46.0,1.0,30.38,West,279,11.0,22.0,15,0.01,,,0.40,,2013-01-29 13:01:00,
2013-01-29 05:31:00,46.0,6.0,30.40,WNW,300,14.0,20.0,19,0.00,,,0.38,,2013-01-29 13:31:00,
2013-01-29 05:52:00,46.0,5.0,30.41,WNW,297,14.0,22.0,18,0.00,,,0.38,,2013-01-29 13:52:00,
2013-01-29 06:01:00,46.0,7.0,30.41,WNW,282,14.0,21.0,20,0.00,,,0.38,,2013-01-29 14:01:00,
2013-01-29 06:11:00,46.0,4.0,30.41,WNW,290,11.0,22.0,17,0.00,,,0.38,,2013-01-29 14:11:00,
2013-01-29 06:21:00,46.0,4.0,30.41,WNW,290,11.0,22.0,17,0.00,,,0.38,,2013-01-29 14:21:00,
2013-01-29 06:32:00,46.0,5.0,30.42,NW,315,14.0,21.0,18,0.00,,,0.34,,2013-01-29 14:32:00,
2013-01-29 06:52:00,46.0,2.0,30.42,WNW,291,12.0,18.0,16,0.00,,,0.34,,2013-01-29 14:52:00,
2013-01-29 07:01:00,46.0,1.0,30.42,WNW,302,12.0,20.0,15,0.00,,,0.34,,2013-01-29 15:01:00,
2013-01-29 07:21:00,46.0,1.0,30.42,NW,307,13.0,20.0,15,0.00,,,0.34,,2013-01-29 15:21:00,
2013-01-29 07:32:00,46.0,2.0,30.43,WNW,289,13.0,18.0,16,0.00,,,0.31,,2013-01-29 15:32:00,
2013-01-29 07:53:00,46.0,4.0,30.44,West,277,11.0,23.0,17,0.00,,,0.31,,2013-01-29 15:53:00,
2013-01-29 08:01:00,46.0,1.0,30.44,NW,304,11.0,17.0,15,0.00,,,0.31,,2013-01-29 16:01:00,
2013-01-29 08:21:00,46.0,-2.0,30.44,WNW,302,11.0,18.0,13,0.00,,,0.31,,2013-01-29 16:21:00,
2013-01-29 08:31:00,46.0,-2.0,30.45,WNW,290,11.0,18.0,13,0.00,,,0.28,,2013-01-29 16:31:00,
2013-01-29 09:02:00,46.0,0.0,30.46,WNW,299,10.0,16.0,14,0.00,,,0.28,,2013-01-29 17:02:00,
2013-01-29 09:21:00,46.0,2.0,30.46,West,279,8.0,14.0,16,0.00,,,0.28,,2013-01-29 17:21:00,
2013-01-29 09:31:00,46.0,5.0,30.47,West,274,7.0,12.0,18,0.00,,,0.25,,2013-01-29 17:31:00,
2013-01-29 09:52:00,47.0,6.0,30.47,West,269,9.0,15.0,18,0.00,,,0.25,,2013-01-29 17:52:00,
2013-01-29 10:02:00,46.0,2.0,30.48,WNW,287,11.0,15.0,16,0.00,,,0.25,,2013-01-29 18:02:00,
2013-01-29 10:22:00,46.0,1.0,30.49,WNW,294,4.0,12.0,15,0.00,,,0.25,,2013-01-29 18:22:00,
2013-01-29 10:33:00,47.0,7.0,30.49,West,263,3.0,11.0,19,0.00,,,0.22,,2013-01-29 18:33:00,
2013-01-29 10:52:00,47.0,11.0,30.49,SW,227,8.0,14.0,23,0.01,,,0.23,,2013-01-29 18:52:00,
2013-01-29 11:01:00,46.0,4.0,30.50,WNW,296,5.0,11.0,17,0.01,,,0.23,,2013-01-29 19:01:00,
2013-01-29 11:22:00,47.0,4.0,30.51,WSW,247,4.0,7.0,17,0.01,,,0.23,,2013-01-29 19:22:00,
2013-01-29 11:31:00,46.0,6.0,30.52,West,262,8.0,15.0,19,0.01,,,0.20,,2013-01-29 19:31:00,
2013-01-29 11:52:00,45.0,3.0,30.52,West,270,8.0,13.0,17,0.01,,,0.21,,2013-01-29 19:52:00,
2013-01-29 12:01:00,46.0,4.0,30.52,West,279,3.0,9.0,17,0.01,,,0.21,,2013-01-29 20:01:00,
2013-01-29 12:21:00,46.0,7.0,30.52,West,276,6.0,11.0,20,0.01,,,0.21,,2013-01-29 20:21:00,
2013-01-29 12:32:00,46.0,8.0,30.53,West,280,6.0,9.0,21,0.01,,,0.21,,2013-01-29 20:32:00,
2013-01-29 12:53:00,47.0,8.0,30.52,West,261,8.0,12.0,20,0.00,,,0.21,,2013-01-29 20:53:00,
2013-01-29 13:01:00,46.0,11.0,30.53,West,279,7.0,14.0,24,0.00,,,0.21,,2013-01-29 21:01:00,
2013-01-29 13:21:00,46.0,8.0,30.53,West,261,3.0,12.0,21,0.00,,,0.21,,2013-01-29 21:21:00,
2013-01-29 13:32:00,47.0,14.0,30.53,West,271,5.0,11.0,26,0.00,,,0.21,,2013-01-29 21:32:00,
2013-01-29 13:52:00,47.0,16.0,30.52,WNW,301,5.0,11.0,29,0.00,,,0.21,,2013-01-29 21:52:00,
2013-01-29 14:01:00,47.0,19.0,30.53,SW,229,6.0,9.0,32,0.00,,,0.21,,2013-01-29 22:01:00,
2013-01-29 14:21:00,47.0,16.0,30.53,WSW,250,4.0,10.0,29,0.00,,,0.21,,2013-01-29 22:21:00,
2013-01-29 14:32:00,47.0,16.0,30.53,SW,234,6.0,13.0,28,0.00,,,0.20,,2013-01-29 22:32:00,
2013-01-29 14:53:00,47.0,16.0,30.52,SW,229,4.0,11.0,28,0.00,,,0.20,,2013-01-29 22:53:00,
2013-01-29 15:01:00,47.0,20.0,30.54,WSW,252,4.0,8.0,34,0.00,,,0.20,,2013-01-29 23:01:00,
2013-01-29 15:22:00,47.0,17.0,30.54,West,262,9.0,13.0,30,0.00,,,0.20,,2013-01-29 23:22:00,
2013-01-29 15:32:00,46.0,14.0,30.55,West,269,6.0,10.0,27,0.00,,,0.19,,2013-01-29 23:32:00,
2013-01-29 15:53:00,47.0,16.0,30.54,SW,234,2.0,9.0,29,0.00,,,0.19,,2013-01-29 23:53:00,
2013-01-29 16:02:00,47.0,16.0,30.55,WSW,246,3.0,13.0,28,0.00,,,0.19,,2013-01-30 00:02:00,
2013-01-29 16:21:00,47.0,18.0,30.55,SW,224,3.0,9.0,31,0.00,,,0.19,,2013-01-30 00:21:00,
2013-01-29 16:32:00,47.0,19.0,30.56,West,260,3.0,9.0,33,0.00,,,0.18,,2013-01-30 00:32:00,
2013-01-29 16:52:00,47.0,18.0,30.56,SW,223,4.0,7.0,31,0.00,,,0.18,,2013-01-30 00:52:00,
2013-01-29 17:01:00,47.0,20.0,30.56,WSW,238,3.0,8.0,34,0.00,,,0.18,,2013-01-30 01:01:00,
2013-01-29 17:22:00,47.0,20.0,30.56,SW,232,4.0,7.0,34,0.00,,,0.18,,2013-01-30 01:22:00,
2013-01-29 17:31:00,47.0,19.0,30.56,SSW,213,4.0,10.0,33,0.00,,,0.18,,2013-01-30 01:31:00,
2013-01-29 17:52:00,47.0,19.0,30.56,SSW,205,5.0,10.0,33,0.00,,,0.18,,2013-01-30 01:52:00,
2013-01-29 18:01:00,47.0,19.0,30.55,SSW,196,4.0,7.0,33,0.00,,,0.18,,2013-01-30 02:01:00,
2013-01-29 18:21:00,47.0,19.0,30.55,WSW,248,3.0,7.0,32,0.00,,,0.18,,2013-01-30 02:21:00,
2013-01-29 18:32:00,47.0,21.0,30.56,West,273,4.0,9.0,36,0.00,,,0.17,,2013-01-30 02:32:00,
2013-01-29 18:53:00,46.0,16.0,30.56,WNW,287,4.0,10.0,29,0.00,,,0.17,,2013-01-30 02:53:00,
2013-01-29 19:02:00,46.0,17.0,30.57,West,270,4.0,6.0,31,0.00,,,0.17,,2013-01-30 03:02:00,
2013-01-29 19:21:00,46.0,12.0,30.57,WSW,252,2.0,5.0,25,0.00,,,0.17,,2013-01-30 03:21:00,
2013-01-29 19:31:00,46.0,15.0,30.57,WSW,257,4.0,5.0,28,0.00,,,0.17,,2013-01-30 03:31:00,
2013-01-29 19:52:00,46.0,15.0,30.57,WSW,241,4.0,6.0,28,0.00,,,0.17,,2013-01-30 03:52:00,
2013-01-29 20:01:00,46.0,16.0,30.57,SW,224,4.0,6.0,29,0.00,,,0.17,,2013-01-30 04:01:00,
2013-01-29 20:21:00,46.0,15.0,30.57,WSW,253,3.0,6.0,28,0.00,,,0.17,,2013-01-30 04:21:00,
2013-01-29 20:31:00,46.0,12.0,30.57,WSW,246,3.0,6.0,25,0.00,,,0.15,,2013-01-30 04:31:00,
2013-01-29 20:52:00,46.0,15.0,30.57,WSW,247,2.0,6.0,28,0.00,,,0.15,,2013-01-30 04:52:00,
2013-01-29 21:03:00,46.0,19.0,30.56,WSW,239,2.0,6.0,33,0.00,,,0.15,,2013-01-30 05:03:00,
2013-01-29 21:11:00,46.0,17.0,30.56,SW,230,2.0,4.0,31,0.00,,,0.15,,2013-01-30 05:11:00,
2013-01-29 21:22:00,46.0,17.0,30.56,SW,230,2.0,4.0,31,0.00,,,0.15,,2013-01-30 05:22:00,
2013-01-29 21:31:00,47.0,19.0,30.56,SSE,159,4.0,4.0,33,0.00,,,0.14,,2013-01-30 05:31:00,
2013-01-29 21:52:00,46.0,18.0,30.56,SSE,157,2.0,3.0,32,0.00,,,0.14,,2013-01-30 05:52:00,
2013-01-29 22:02:00,46.0,18.0,30.56,SE,130,2.0,4.0,32,0.00,,,0.14,,2013-01-30 06:02:00,
2013-01-29 22:21:00,46.0,14.0,30.56,SSE,150,2.0,5.0,27,0.00,,,0.14,,2013-01-30 06:21:00,
2013-01-29 22:31:00,46.0,16.0,30.55,SE,124,4.0,5.0,29,0.00,,,0.13,,2013-01-30 06:31:00,
2013-01-29 22:52:00,46.0,16.0,30.55,SSE,164,4.0,4.0,29,0.00,,,0.13,,2013-01-30 06:52:00,
2013-01-29 23:01:00,46.0,15.0,30.55,SSE,162,3.0,6.0,28,0.00,,,0.13,,2013-01-30 07:01:00,
2013-01-29 23:21:00,46.0,16.0,30.55,SSE,156,3.0,8.0,30,0.00,,,0.13,,2013-01-30 07:21:00,
2013-01-29 23:31:00,46.0,13.0,30.55,SSE,161,3.0,6.0,26,0.00,,,0.11,,2013-01-30 07:31:00,
2013-01-29 23:52:00,46.0,16.0,30.55,SSE,160,4.0,6.0,29,0.00,,,0.11,,2013-01-30 07:52:00,